| time (UTC) | temp F | wind direction | speed knots | gust knots | rain 1hr in | rain 24hr in | rain mn in | humidity % | barometer mb |
| 20260831051040 | 74 | 133 | 1.7 | 5.2 | 0.04 | 0.04 | 0.04 | 90 | 1005.2 |
| 20260831050540 | 74 | 148 | 1.7 | 6.1 | 0.00 | 0.00 | 0.00 | 90 | 1005.5 |
| 20260831050057 | 74 | 157 | 2.6 | 6.1 | 0.00 | 0.00 | 0.00 | 89 | 1005.2 |
| 20260831045537 | 74 | 159 | 2.6 | 6.1 | 0.00 | 0.00 | 0.00 | 89 | 1005.5 |
| 20260831045038 | 74 | 155 | 0.0 | 4.3 | 0.00 | 0.00 | 0.00 | 89 | 1005.7 |
| 20260831044537 | 74 | 155 | 1.7 | 6.1 | 0.00 | 0.00 | 0.00 | 89 | 1005.6 |
| 20260831044037 | 74 | 141 | 1.7 | 6.1 | 0.00 | 0.00 | 0.00 | 89 | 1005.5 |
| 20260831043538 | 74 | 173 | 0.9 | 6.1 | 0.00 | 0.00 | 0.00 | 89 | 1005.6 |
| 20260831043043 | 74 | 121 | 3.5 | 6.1 | 0.00 | 0.00 | 0.00 | 89 | 1005.5 |
| 20260831042537 | 74 | 161 | 1.7 | 4.3 | 0.00 | 0.00 | 0.00 | 89 | 1005.6 |
| 20260831042037 | 74 | 153 | 1.7 | 6.1 | 0.00 | 0.00 | 0.00 | 89 | 1005.4 |
| 20260831041551 | 74 | 124 | 0.9 | 7.0 | 0.00 | 0.00 | 0.00 | 89 | 1005.3 |
| 20260831041037 | 74 | 158 | 2.6 | 7.0 | 0.00 | 0.00 | 0.00 | 89 | 1005.2 |
| 20260831040536 | 74 | 153 | 1.7 | 6.1 | 0.00 | 0.00 | 0.00 | 89 | 1005.1 |
| 20260831040036 | 74 | 129 | 1.7 | 7.0 | 0.00 | 0.00 | 0.00 | 89 | 1005.1 |
| 20260831035539 | 74 | 137 | 2.6 | 7.0 | 0.00 | 0.00 | 0.00 | 89 | 1005.1 |
| 20260831035035 | 74 | 135 | 2.6 | 7.0 | 0.00 | 0.00 | 0.00 | 88 | 1005.1 |
| 20260831034539 | 74 | 174 | 2.6 | 7.0 | 0.00 | 0.00 | 0.00 | 88 | 1005.3 |
| 20260831034035 | 74 | 144 | 0.9 | 6.1 | 0.00 | 0.00 | 0.00 | 88 | 1005.5 |
| 20260831033539 | 75 | 157 | 2.6 | 6.1 | 0.00 | 0.00 | 0.00 | 88 | 1005.6 |
| 20260831033036 | 75 | 163 | 1.7 | 7.0 | 0.00 | 0.00 | 0.00 | 87 | 1005.8 |
| 20260831032534 | 75 | 148 | 1.7 | 7.0 | 0.00 | 0.00 | 0.00 | 87 | 1005.8 |
| 20260831032037 | 75 | 152 | 3.5 | 7.8 | 0.00 | 0.00 | 0.00 | 87 | 1005.9 |
| 20260831031545 | 75 | 153 | 4.3 | 8.7 | 0.00 | 0.00 | 0.00 | 87 | 1005.9 |
| 20260831031033 | 75 | 102 | 4.3 | 8.7 | 0.00 | 0.00 | 0.00 | 86 | 1006.0 |
| 20260831030534 | 76 | 134 | 1.7 | 7.8 | 0.00 | 0.00 | 0.00 | 86 | 1006.0 |
| 20260831030036 | 76 | 159 | 2.6 | 7.0 | 0.00 | 0.00 | 0.00 | 86 | 1006.1 |
| 20260831025534 | 76 | 138 | 2.6 | 7.8 | 0.00 | 0.00 | 0.00 | 85 | 1006.2 |
| 20260831025034 | 76 | 136 | 2.6 | 7.8 | 0.00 | 0.00 | 0.00 | 85 | 1006.2 |
| 20260831024533 | 76 | 142 | 0.9 | 7.0 | 0.00 | 0.00 | 0.00 | 85 | 1006.4 |
| 20260831024032 | 76 | 136 | 3.5 | 7.0 | 0.00 | 0.00 | 0.00 | 85 | 1006.4 |
| 20260831023534 | 76 | 165 | 2.6 | 6.1 | 0.00 | 0.00 | 0.00 | 84 | 1006.3 |
| 20260831023033 | 77 | 144 | 1.7 | 7.0 | 0.00 | 0.00 | 0.00 | 84 | 1006.3 |
| 20260831022532 | 77 | 130 | 0.0 | 7.0 | 0.00 | 0.00 | 0.00 | 84 | 1006.4 |
| 20260831022032 | 77 | 158 | 1.7 | 7.0 | 0.00 | 0.00 | 0.00 | 84 | 1006.5 |
| 20260831021533 | 77 | 148 | 2.6 | 7.0 | 0.00 | 0.00 | 0.00 | 84 | 1006.4 |
| 20260831021032 | 77 | 147 | 3.5 | 8.7 | 0.00 | 0.00 | 0.00 | 84 | 1006.2 |
| 20260831020534 | 77 | 155 | 2.6 | 8.7 | 0.00 | 0.00 | 0.00 | 83 | 1006.2 |
| 20260831020034 | 77 | 159 | 3.5 | 9.6 | 0.00 | 0.00 | 0.00 | 83 | 1006.1 |
| 20260831015536 | 77 | 166 | 4.3 | 10.4 | 0.00 | 0.00 | 0.00 | 83 | 1006.0 |
| 20260831015032 | 78 | 157 | 3.5 | 10.4 | 0.00 | 0.00 | 0.00 | 83 | 1006.0 |
| 20260831014537 | 78 | 163 | 5.2 | 9.6 | 0.00 | 0.00 | 0.00 | 82 | 1005.9 |
| 20260831014031 | 78 | 132 | 4.3 | 9.6 | 0.00 | 0.00 | 0.00 | 82 | 1005.8 |
| 20260831013531 | 78 | 177 | 3.5 | 9.6 | 0.00 | 0.00 | 0.00 | 82 | 1005.6 |
| 20260831013040 | 78 | 153 | 5.2 | 9.6 | 0.00 | 0.00 | 0.00 | 82 | 1005.3 |
| 20260831012531 | 78 | 138 | 1.7 | 7.8 | 0.00 | 0.00 | 0.00 | 82 | 1005.2 |
| 20260831012031 | 78 | 144 | 1.7 | 7.8 | 0.00 | 0.00 | 0.00 | 82 | 1005.1 |
| 20260831011531 | 78 | 130 | 2.6 | 7.0 | 0.00 | 0.00 | 0.00 | 81 | 1005.1 |
| 20260831011029 | 78 | 156 | 1.7 | 8.7 | 0.00 | 0.00 | 0.00 | 81 | 1005.2 |
| 20260831010530 | 78 | 148 | 3.5 | 8.7 | 0.00 | 0.00 | 0.00 | 81 | 1005.1 |
| 20260831010030 | 78 | 129 | 1.7 | 9.6 | 0.00 | 0.00 | 0.00 | 81 | 1005.0 |
| 20260831005530 | 78 | 70 | 4.3 | 9.6 | 0.00 | 0.00 | 0.00 | 80 | 1005.0 |
| 20260831005030 | 79 | 355 | 2.6 | 8.7 | 0.00 | 0.00 | 0.00 | 80 | 1004.9 |
| 20260831004529 | 79 | 138 | 2.6 | 11.3 | 0.00 | 0.00 | 0.00 | 80 | 1004.9 |
| 20260831004030 | 79 | 121 | 4.3 | 11.3 | 0.00 | 0.00 | 0.00 | 79 | 1005.0 |
| 20260831003531 | 79 | 43 | 3.5 | 9.6 | 0.00 | 0.00 | 0.00 | 78 | 1005.0 |
| 20260831003028 | 80 | 49 | 4.3 | 12.2 | 0.00 | 0.00 | 0.00 | 78 | 1005.0 |
| 20260831002527 | 80 | 118 | 6.1 | 12.2 | 0.00 | 0.00 | 0.00 | 78 | 1005.0 |
| 20260831002030 | 80 | 153 | 5.2 | 10.4 | 0.00 | 0.00 | 0.00 | 78 | 1005.0 |
| 20260831001533 | 80 | 107 | 4.3 | 12.2 | 0.00 | 0.00 | 0.00 | 78 | 1005.2 |
| 20260831001027 | 80 | 151 | 4.3 | 10.4 | 0.00 | 0.00 | 0.00 | 78 | 1005.2 |
| 20260831000526 | 80 | 119 | 5.2 | 10.4 | 0.00 | 0.00 | 0.00 | 78 | 1005.3 |
| 20260831000024 | 80 | 131 | 3.5 | 9.6 | 0.00 | 0.00 | 0.00 | 78 | 1005.5 |
| 20260830235525 | 80 | 335 | 4.3 | 9.6 | 0.00 | 0.00 | 0.00 | 77 | 1005.6 |
| 20260830235028 | 80 | 149 | 4.3 | 12.2 | 0.00 | 0.00 | 0.00 | 77 | 1005.6 |
| 20260830234525 | 80 | 104 | 5.2 | 12.2 | 0.00 | 0.00 | 0.00 | 77 | 1005.7 |
| 20260830234024 | 80 | 83 | 4.3 | 12.2 | 0.00 | 0.00 | 0.00 | 76 | 1005.7 |
| 20260830233527 | 80 | 80 | 3.5 | 12.2 | 0.00 | 0.00 | 0.00 | 76 | 1005.5 |
| 20260830233022 | 81 | 141 | 5.2 | 12.2 | 0.00 | 0.00 | 0.00 | 75 | 1005.6 |
| 20260830232522 | 81 | 24 | 4.3 | 12.2 | 0.00 | 0.00 | 0.00 | 75 | 1005.7 |
| 20260830232025 | 81 | 9 | 5.2 | 13.0 | 0.00 | 0.00 | 0.00 | 75 | 1005.7 |
| 20260830231520 | 81 | 142 | 6.1 | 13.0 | 0.00 | 0.00 | 0.00 | 75 | 1005.6 |
| 20260830231021 | 81 | 145 | 6.1 | 12.2 | 0.00 | 0.00 | 0.00 | 76 | 1005.6 |
| 20260830230520 | 81 | 89 | 6.1 | 12.2 | 0.00 | 0.00 | 0.00 | 75 | 1005.7 |
| 20260830230020 | 81 | 52 | 5.2 | 12.2 | 0.00 | 0.00 | 0.00 | 75 | 1005.6 |
| 20260830225519 | 80 | 74 | 5.2 | 13.9 | 0.00 | 0.00 | 0.00 | 76 | 1005.6 |
| 20260830225021 | 80 | 45 | 5.2 | 13.9 | 0.00 | 0.00 | 0.00 | 76 | 1005.7 |
| 20260830224519 | 80 | 68 | 4.3 | 13.0 | 0.00 | 0.00 | 0.00 | 76 | 1005.8 |
| 20260830224021 | 80 | 34 | 6.1 | 13.0 | 0.00 | 0.00 | 0.00 | 76 | 1005.8 |
| 20260830223517 | 80 | 78 | 3.5 | 9.6 | 0.00 | 0.00 | 0.00 | 77 | 1005.9 |
| 20260830223023 | 80 | 130 | 3.5 | 11.3 | 0.00 | 0.00 | 0.00 | 76 | 1006.0 |
| 20260830222516 | 80 | 131 | 4.3 | 13.0 | 0.00 | 0.00 | 0.00 | 76 | 1006.1 |
| 20260830222019 | 80 | 71 | 5.2 | 13.0 | 0.00 | 0.00 | 0.00 | 76 | 1006.2 |
| 20260830221518 | 80 | 140 | 6.1 | 11.3 | 0.00 | 0.00 | 0.00 | 76 | 1006.3 |
| 20260830221015 | 80 | 64 | 3.5 | 10.4 | 0.00 | 0.00 | 0.00 | 76 | 1006.2 |
| 20260830220514 | 80 | 92 | 6.1 | 9.6 | 0.00 | 0.00 | 0.00 | 75 | 1006.4 |
| 20260830220014 | 80 | 89 | 4.3 | 13.0 | 0.00 | 0.00 | 0.00 | 75 | 1006.5 |
| 20260830215514 | 81 | 69 | 6.1 | 13.0 | 0.00 | 0.00 | 0.00 | 75 | 1006.5 |
| 20260830215013 | 80 | 103 | 7.0 | 13.0 | 0.00 | 0.00 | 0.00 | 76 | 1006.4 |
| 20260830214517 | 80 | 82 | 7.8 | 13.0 | 0.00 | 0.00 | 0.00 | 76 | 1006.5 |
| 20260830214011 | 80 | 103 | 5.2 | 11.3 | 0.00 | 0.00 | 0.00 | 75 | 1006.5 |
| 20260830213514 | 80 | 107 | 6.1 | 13.9 | 0.00 | 0.00 | 0.00 | 75 | 1006.6 |
| 20260830213010 | 80 | 52 | 6.1 | 13.9 | 0.00 | 0.00 | 0.00 | 75 | 1006.6 |
| 20260830212510 | 80 | 81 | 6.1 | 13.9 | 0.00 | 0.00 | 0.00 | 75 | 1006.7 |
| 20260830212010 | 79 | 82 | 7.0 | 13.9 | 0.00 | 0.00 | 0.00 | 77 | 1006.8 |
| 20260830211511 | 79 | 97 | 6.1 | 11.3 | 0.00 | 0.00 | 0.00 | 76 | 1006.8 |
| 20260830211008 | 79 | 71 | 6.1 | 11.3 | 0.00 | 0.00 | 0.00 | 76 | 1006.9 |
| 20260830210508 | 79 | 56 | 5.2 | 13.0 | 0.00 | 0.00 | 0.00 | 75 | 1006.9 |
| 20260830210008 | 80 | 112 | 4.3 | 13.0 | 0.00 | 0.00 | 0.00 | 75 | 1006.9 |
| 20260830205510 | 80 | 79 | 6.1 | 11.3 | 0.00 | 0.00 | 0.00 | 75 | 1007.0 |
| 20260830205007 | 80 | 53 | 4.3 | 12.2 | 0.00 | 0.00 | 0.00 | 75 | 1007.1 |
| 20260830204507 | 80 | 83 | 6.1 | 14.8 | 0.00 | 0.00 | 0.00 | 76 | 1007.2 |
| 20260830204005 | 80 | 103 | 7.0 | 14.8 | 0.00 | 0.00 | 0.00 | 75 | 1007.1 |
| 20260830203504 | 80 | 100 | 7.0 | 13.9 | 0.00 | 0.00 | 0.00 | 75 | 1007.1 |
| 20260830203013 | 80 | 98 | 6.1 | 13.0 | 0.00 | 0.00 | 0.00 | 76 | 1007.2 |
| 20260830202504 | 80 | 108 | 7.0 | 13.0 | 0.00 | 0.00 | 0.00 | 76 | 1007.2 |
| 20260830202003 | 79 | 105 | 7.8 | 12.2 | 0.00 | 0.00 | 0.00 | 77 | 1007.2 |
| 20260830201502 | 79 | 98 | 7.0 | 12.2 | 0.00 | 0.00 | 0.00 | 77 | 1007.3 |
| 20260830201003 | 79 | 35 | 5.2 | 12.2 | 0.00 | 0.00 | 0.00 | 76 | 1007.5 |
| 20260830200601 | 79 | 57 | 7.0 | 12.2 | 0.00 | 0.00 | 0.00 | 76 | 1007.6 |
| 20260830200113 | 78 | 64 | 5.2 | 13.0 | 0.00 | 0.00 | 0.00 | 78 | 1007.7 |
| 20260830195559 | 77 | 82 | 7.8 | 13.0 | 0.00 | 0.00 | 0.00 | 78 | 1007.9 |
| 20260830195056 | 77 | 91 | 5.2 | 10.4 | 0.00 | 0.00 | 0.00 | 78 | 1008.1 |
| 20260830194630 | 77 | 88 | 5.2 | 10.4 | 0.00 | 0.00 | 0.00 | 78 | 1008.3 |
| 20260830194057 | 77 | 87 | 3.5 | 9.6 | 0.00 | 0.00 | 0.00 | 78 | 1008.3 |
| 20260830193559 | 78 | 59 | 4.3 | 8.7 | 0.00 | 0.00 | 0.00 | 78 | 1008.4 |
| 20260830193056 | 78 | 44 | 3.5 | 9.6 | 0.00 | 0.00 | 0.00 | 78 | 1008.3 |
| 20260830192555 | 78 | 58 | 5.2 | 9.6 | 0.00 | 0.00 | 0.00 | 76 | 1008.4 |
| 20260830192054 | 78 | 132 | 3.5 | 8.7 | 0.00 | 0.00 | 0.00 | 77 | 1008.5 |
| 20260830191600 | 78 | 83 | 3.5 | 8.7 | 0.00 | 0.00 | 0.00 | 78 | 1008.5 |
| 20260830191057 | 77 | 157 | 3.5 | 10.4 | 0.00 | 0.00 | 0.00 | 78 | 1008.5 |
| 20260830190555 | 77 | 88 | 3.5 | 10.4 | 0.00 | 0.00 | 0.00 | 78 | 1008.6 |
| 20260830190056 | 77 | 38 | 4.3 | 10.4 | 0.00 | 0.00 | 0.00 | 78 | 1008.5 |
| 20260830185555 | 78 | 82 | 3.5 | 8.7 | 0.00 | 0.00 | 0.00 | 77 | 1008.5 |
| 20260830185054 | 78 | 161 | 4.3 | 13.9 | 0.00 | 0.00 | 0.00 | 77 | 1008.4 |
| 20260830184555 | 78 | 121 | 5.2 | 13.9 | 0.00 | 0.00 | 0.00 | 77 | 1008.3 |
| 20260830184054 | 78 | 141 | 4.3 | 12.2 | 0.00 | 0.00 | 0.00 | 78 | 1008.3 |
| 20260830183558 | 78 | 131 | 4.3 | 9.6 | 0.00 | 0.00 | 0.00 | 77 | 1008.3 |
| 20260830183100 | 78 | 121 | 2.6 | 9.6 | 0.00 | 0.00 | 0.00 | 77 | 1008.2 |
| 20260830182556 | 78 | 144 | 3.5 | 12.2 | 0.00 | 0.00 | 0.00 | 76 | 1008.2 |
| 20260830182053 | 79 | 92 | 6.1 | 15.6 | 0.00 | 0.00 | 0.00 | 75 | 1008.3 |
| 20260830181553 | 79 | 127 | 9.6 | 15.6 | 0.00 | 0.00 | 0.00 | 74 | 1008.5 |
| 20260830181054 | 80 | 149 | 4.3 | 10.4 | 0.00 | 0.00 | 0.00 | 74 | 1008.4 |
| 20260830180551 | 79 | 107 | 3.5 | 10.4 | 0.00 | 0.00 | 0.00 | 75 | 1008.5 |
| 20260830180049 | 78 | 140 | 2.6 | 8.7 | 0.00 | 0.00 | 0.00 | 78 | 1008.4 |
| 20260830175548 | 77 | 157 | 2.6 | 8.7 | 0.00 | 0.00 | 0.00 | 77 | 1008.4 |
| 20260830175049 | 78 | 46 | 3.5 | 9.6 | 0.00 | 0.00 | 0.00 | 76 | 1008.4 |
| 20260830174554 | 78 | 163 | 4.3 | 10.4 | 0.00 | 0.00 | 0.00 | 77 | 1008.5 |
| 20260830174052 | 78 | 75 | 4.3 | 12.2 | 0.00 | 0.00 | 0.00 | 77 | 1008.5 |
| 20260830173548 | 78 | 82 | 4.3 | 11.3 | 0.00 | 0.00 | 0.00 | 76 | 1008.7 |
| 20260830173103 | 77 | 150 | 5.2 | 9.6 | 0.00 | 0.00 | 0.00 | 79 | 1008.6 |
| 20260830172545 | 76 | 120 | 3.5 | 9.6 | 0.00 | 0.00 | 0.00 | 79 | 1008.5 |
| 20260830172045 | 76 | 89 | 4.3 | 13.9 | 0.00 | 0.00 | 0.00 | 79 | 1008.5 |
| 20260830171549 | 76 | 37 | 7.0 | 13.9 | 0.00 | 0.00 | 0.00 | 78 | 1008.5 |
| 20260830171045 | 77 | 77 | 5.2 | 10.4 | 0.00 | 0.00 | 0.00 | 79 | 1008.5 |
| 20260830170547 | 76 | 128 | 5.2 | 10.4 | 0.00 | 0.00 | 0.00 | 81 | 1008.5 |
| 20260830170052 | 75 | 105 | 5.2 | 10.4 | 0.00 | 0.00 | 0.00 | 80 | 1008.5 |
| 20260830165544 | 75 | 81 | 4.3 | 8.7 | 0.00 | 0.00 | 0.00 | 81 | 1008.5 |
| 20260830165044 | 75 | 111 | 4.3 | 12.2 | 0.00 | 0.00 | 0.00 | 81 | 1008.5 |
| 20260830164552 | 75 | 166 | 5.2 | 12.2 | 0.00 | 0.00 | 0.00 | 81 | 1008.4 |
| 20260830164044 | 75 | 176 | 3.5 | 10.4 | 0.00 | 0.00 | 0.00 | 80 | 1008.4 |
| 20260830163543 | 75 | 74 | 5.2 | 10.4 | 0.00 | 0.00 | 0.00 | 80 | 1008.4 |
| 20260830163054 | 76 | 30 | 6.1 | 11.3 | 0.00 | 0.00 | 0.00 | 79 | 1008.4 |
| 20260830162542 | 76 | 107 | 4.3 | 12.2 | 0.00 | 0.00 | 0.00 | 79 | 1008.5 |
| 20260830162041 | 77 | 127 | 3.5 | 11.3 | 0.00 | 0.00 | 0.00 | 79 | 1008.4 |
| 20260830161559 | 76 | 71 | 5.2 | 10.4 | 0.00 | 0.00 | 0.00 | 80 | 1008.3 |
| 20260830161041 | 76 | 69 | 6.1 | 11.3 | 0.00 | 0.00 | 0.00 | 80 | 1008.6 |
| 20260830160540 | 76 | 97 | 5.2 | 12.2 | 0.00 | 0.00 | 0.00 | 80 | 1008.6 |
| 20260830160040 | 76 | 111 | 4.3 | 12.2 | 0.00 | 0.00 | 0.00 | 79 | 1008.7 |
| 20260830155539 | 76 | 159 | 3.5 | 8.7 | 0.00 | 0.00 | 0.00 | 81 | 1008.7 |
| 20260830155038 | 75 | 60 | 4.3 | 10.4 | 0.00 | 0.00 | 0.00 | 83 | 1008.6 |
| 20260830154536 | 74 | 77 | 5.2 | 10.4 | 0.00 | 0.00 | 0.00 | 84 | 1008.7 |
| 20260830154038 | 74 | 85 | 5.2 | 11.3 | 0.00 | 0.00 | 0.00 | 83 | 1008.6 |
| 20260830153537 | 75 | 78 | 7.0 | 11.3 | 0.00 | 0.00 | 0.00 | 82 | 1008.6 |
| 20260830153045 | 75 | 120 | 5.2 | 11.3 | 0.00 | 0.00 | 0.00 | 82 | 1008.7 |
| 20260830152533 | 74 | 63 | 3.5 | 7.8 | 0.00 | 0.00 | 0.00 | 84 | 1008.7 |
| 20260830152033 | 74 | 109 | 4.3 | 11.3 | 0.00 | 0.00 | 0.00 | 84 | 1008.7 |
| 20260830151534 | 74 | 70 | 4.3 | 11.3 | 0.00 | 0.00 | 0.00 | 84 | 1008.7 |
| 20260830151034 | 74 | 108 | 3.5 | 11.3 | 0.00 | 0.00 | 0.00 | 83 | 1008.7 |
| 20260830150532 | 74 | 70 | 6.1 | 11.3 | 0.00 | 0.00 | 0.00 | 84 | 1008.8 |
| 20260830150032 | 74 | 111 | 5.2 | 10.4 | 0.00 | 0.00 | 0.00 | 84 | 1008.9 |
| 20260830145530 | 74 | 67 | 5.2 | 11.3 | 0.00 | 0.01 | 0.00 | 85 | 1009.1 |
| 20260830145034 | 74 | 87 | 4.3 | 11.3 | 0.00 | 0.01 | 0.00 | 85 | 1009.2 |
| 20260830144529 | 73 | 91 | 2.6 | 8.7 | 0.00 | 0.01 | 0.00 | 85 | 1009.1 |
| 20260830144028 | 73 | 62 | 5.2 | 8.7 | 0.00 | 0.01 | 0.00 | 85 | 1009.2 |
| 20260830143527 | 73 | 56 | 2.6 | 8.7 | 0.00 | 0.01 | 0.00 | 86 | 1009.3 |
| 20260830143025 | 73 | 106 | 2.6 | 8.7 | 0.00 | 0.01 | 0.00 | 87 | 1009.3 |
| 20260830142523 | 72 | 86 | 5.2 | 8.7 | 0.00 | 0.01 | 0.00 | 88 | 1009.3 |
| 20260830142023 | 71 | 66 | 3.5 | 7.8 | 0.00 | 0.01 | 0.00 | 89 | 1009.3 |
| 20260830141522 | 70 | 86 | 1.7 | 7.8 | 0.00 | 0.01 | 0.00 | 89 | 1009.2 |
| 20260830141020 | 70 | 55 | 4.3 | 7.8 | 0.00 | 0.01 | 0.00 | 89 | 1009.4 |
| 20260830140521 | 70 | 81 | 2.6 | 6.1 | 0.00 | 0.01 | 0.00 | 90 | 1009.4 |
| 20260830140020 | 70 | 67 | 2.6 | 7.0 | 0.00 | 0.01 | 0.00 | 90 | 1009.5 |
| 20260830135519 | 70 | 80 | 1.7 | 4.3 | 0.00 | 0.01 | 0.00 | 90 | 1009.5 |
| 20260830135016 | 70 | 25 | 1.7 | 4.3 | 0.00 | 0.01 | 0.00 | 90 | 1009.6 |
| 20260830134517 | 70 | 82 | 1.7 | 3.5 | 0.00 | 0.01 | 0.00 | 90 | 1009.7 |
| 20260830134015 | 70 | 79 | 0.9 | 3.5 | 0.00 | 0.01 | 0.00 | 91 | 1009.8 |
| 20260830133517 | 70 | 73 | 0.0 | 2.6 | 0.00 | 0.01 | 0.00 | 91 | 1009.7 |
| 20260830133015 | 70 | 75 | 0.9 | 4.3 | 0.00 | 0.01 | 0.00 | 91 | 1009.9 |
| 20260830132511 | 69 | 59 | 0.9 | 4.3 | 0.00 | 0.01 | 0.00 | 91 | 1009.7 |
| 20260830132014 | 69 | 65 | 0.9 | 3.5 | 0.00 | 0.01 | 0.00 | 91 | 1009.7 |
| 20260830131514 | 69 | 105 | 0.9 | 2.6 | 0.00 | 0.01 | 0.00 | 91 | 1009.6 |
| 20260830131011 | 69 | 105 | 0.9 | 3.5 | 0.00 | 0.01 | 0.00 | 91 | 1009.7 |
| 20260830130512 | 69 | 111 | 0.9 | 4.3 | 0.00 | 0.01 | 0.00 | 91 | 1009.6 |
| 20260830130010 | 69 | 86 | 0.9 | 4.3 | 0.00 | 0.01 | 0.00 | 91 | 1009.5 |
| 20260830125510 | 69 | 76 | 1.7 | 5.2 | 0.00 | 0.01 | 0.00 | 91 | 1009.2 |
| 20260830125010 | 69 | 54 | 1.7 | 5.2 | 0.00 | 0.01 | 0.00 | 91 | 1009.2 |
| 20260830124509 | 69 | 78 | 1.7 | 5.2 | 0.00 | 0.01 | 0.00 | 91 | 1009.3 |
| 20260830124008 | 69 | 101 | 0.9 | 5.2 | 0.00 | 0.01 | 0.00 | 91 | 1009.5 |
| 20260830123508 | 69 | 102 | 1.7 | 3.5 | 0.00 | 0.01 | 0.00 | 91 | 1009.4 |
| 20260830123007 | 69 | 83 | 1.7 | 5.2 | 0.00 | 0.01 | 0.00 | 91 | 1009.2 |
| 20260830122507 | 69 | 101 | 2.6 | 5.2 | 0.00 | 0.01 | 0.00 | 91 | 1009.1 |
| 20260830122006 | 69 | 86 | 1.7 | 5.2 | 0.00 | 0.01 | 0.00 | 91 | 1009.2 |
| 20260830121506 | 69 | 78 | 1.7 | 5.2 | 0.00 | 0.01 | 0.00 | 91 | 1009.2 |
| 20260830121005 | 69 | 65 | 0.9 | 4.3 | 0.00 | 0.01 | 0.00 | 91 | 1009.2 |
| 20260830120504 | 69 | 49 | 1.7 | 4.3 | 0.00 | 0.01 | 0.00 | 91 | 1009.1 |
| 20260830120005 | 69 | 61 | 2.6 | 4.3 | 0.00 | 0.01 | 0.00 | 91 | 1009.2 |
| 20260830115504 | 69 | 72 | 0.9 | 3.5 | 0.00 | 0.01 | 0.00 | 91 | 1009.2 |
| 20260830115004 | 69 | 89 | 0.9 | 4.3 | 0.00 | 0.01 | 0.00 | 91 | 1009.1 |
| 20260830114504 | 69 | 101 | 1.7 | 4.3 | 0.00 | 0.01 | 0.00 | 91 | 1009.0 |
| 20260830114006 | 69 | 50 | 0.9 | 4.3 | 0.00 | 0.01 | 0.00 | 92 | 1008.9 |
| 20260830113503 | 69 | 60 | 1.7 | 4.3 | 0.00 | 0.01 | 0.00 | 92 | 1008.8 |
| 20260830113003 | 69 | 16 | 1.7 | 5.2 | 0.00 | 0.01 | 0.00 | 92 | 1008.8 |
| 20260830112503 | 69 | 96 | 0.9 | 4.3 | 0.00 | 0.01 | 0.00 | 92 | 1008.8 |
| 20260830112004 | 69 | 74 | 0.9 | 4.3 | 0.00 | 0.01 | 0.00 | 92 | 1008.7 |
| 20260830111503 | 69 | 61 | 2.6 | 4.3 | 0.00 | 0.01 | 0.00 | 92 | 1008.5 |
| 20260830111003 | 69 | 70 | 0.9 | 5.2 | 0.00 | 0.01 | 0.00 | 92 | 1008.6 |
| 20260830110504 | 69 | 57 | 2.6 | 5.2 | 0.00 | 0.01 | 0.00 | 92 | 1008.5 |
| 20260830110003 | 69 | 61 | 1.7 | 5.2 | 0.00 | 0.01 | 0.00 | 92 | 1008.4 |
| 20260830105502 | 69 | 34 | 2.6 | 5.2 | 0.00 | 0.01 | 0.00 | 92 | 1008.5 |
| 20260830105002 | 69 | 62 | 0.9 | 4.3 | 0.00 | 0.01 | 0.00 | 93 | 1008.7 |
| 20260830104502 | 69 | 53 | 0.9 | 4.3 | 0.00 | 0.01 | 0.00 | 92 | 1008.7 |
| 20260830104003 | 69 | 78 | 1.7 | 3.5 | 0.00 | 0.01 | 0.00 | 92 | 1008.4 |
| 20260830103501 | 69 | 57 | 0.9 | 3.5 | 0.00 | 0.01 | 0.00 | 92 | 1008.5 |
| 20260830103001 | 69 | 59 | 0.9 | 4.3 | 0.00 | 0.01 | 0.00 | 92 | 1008.5 |
| 20260830102603 | 69 | 83 | 1.7 | 4.3 | 0.00 | 0.01 | 0.00 | 92 | 1008.5 |
| 20260830102059 | 69 | 87 | 0.9 | 5.2 | 0.00 | 0.01 | 0.00 | 92 | 1008.5 |
| 20260830101559 | 69 | 70 | 1.7 | 5.2 | 0.00 | 0.01 | 0.00 | 92 | 1008.6 |
| 20260830101058 | 69 | 108 | 1.7 | 6.1 | 0.00 | 0.01 | 0.00 | 93 | 1008.9 |
| 20260830100558 | 69 | 81 | 1.7 | 6.1 | 0.00 | 0.01 | 0.00 | 93 | 1008.9 |
| 20260830100104 | 69 | 96 | 1.7 | 6.1 | 0.00 | 0.01 | 0.00 | 93 | 1009.0 |
| 20260830095558 | 69 | 109 | 0.9 | 6.1 | 0.00 | 0.01 | 0.00 | 93 | 1009.0 |
| 20260830095058 | 69 | 98 | 1.7 | 6.1 | 0.00 | 0.01 | 0.00 | 93 | 1009.1 |
| 20260830094601 | 69 | 102 | 0.9 | 4.3 | 0.00 | 0.01 | 0.00 | 93 | 1009.1 |
| 20260830094057 | 69 | 57 | 0.9 | 4.3 | 0.00 | 0.01 | 0.00 | 93 | 1009.1 |
| 20260830093542 | 68 | 80 | 0.9 | 3.5 | 0.00 | 0.01 | 0.00 | 93 | 1009.2 |
| 20260830093127 | 68 | 44 | 0.9 | 2.6 | 0.00 | 0.01 | 0.00 | 93 | 1009.3 |
| 20260830092051 | 68 | 84 | 0.9 | 3.5 | 0.00 | 0.01 | 0.00 | 93 | 1009.5 |
| 20260830091552 | 68 | 90 | 0.9 | 3.5 | 0.00 | 0.01 | 0.00 | 93 | 1009.5 |
| 20260830091050 | 68 | 90 | 1.7 | 3.5 | 0.00 | 0.01 | 0.00 | 93 | 1009.4 |
| 20260830090549 | 68 | 95 | 1.7 | 3.5 | 0.00 | 0.01 | 0.00 | 93 | 1009.6 |
| 20260830090049 | 68 | 94 | 0.9 | 2.6 | 0.00 | 0.01 | 0.00 | 93 | 1009.7 |
| 20260830085548 | 68 | 94 | 0.0 | 2.6 | 0.00 | 0.10 | 0.00 | 93 | 1009.6 |
| 20260830085048 | 68 | 96 | 0.0 | 2.6 | 0.00 | 0.10 | 0.00 | 93 | 1009.7 |
| 20260830084548 | 68 | 96 | 0.9 | 2.6 | 0.00 | 0.10 | 0.00 | 93 | 1009.6 |
| 20260830084048 | 68 | 97 | 0.9 | 2.6 | 0.00 | 0.10 | 0.00 | 93 | 1009.6 |
| 20260830083548 | 68 | 99 | 0.9 | 2.6 | 0.00 | 0.10 | 0.00 | 93 | 1009.5 |
| 20260830083054 | 68 | 64 | 0.0 | 3.5 | 0.00 | 0.10 | 0.00 | 93 | 1009.5 |
| 20260830082547 | 68 | 64 | 0.9 | 3.5 | 0.00 | 0.10 | 0.00 | 93 | 1009.4 |
| 20260830082046 | 68 | 69 | 0.9 | 2.6 | 0.00 | 0.10 | 0.00 | 93 | 1009.2 |
| 20260830081548 | 68 | 59 | 0.0 | 3.5 | 0.00 | 0.10 | 0.00 | 93 | 1009.2 |
| 20260830081046 | 68 | 60 | 0.9 | 3.5 | 0.00 | 0.10 | 0.00 | 93 | 1009.2 |
| 20260830080546 | 68 | 80 | 0.0 | 2.6 | 0.00 | 0.10 | 0.00 | 93 | 1009.1 |
| 20260830080055 | 68 | 80 | 0.9 | 3.5 | 0.00 | 0.10 | 0.00 | 93 | 1009.0 |
| 20260830075546 | 68 | 52 | 0.0 | 3.5 | 0.00 | 0.10 | 0.00 | 92 | 1009.0 |
| 20260830075045 | 68 | 37 | 0.9 | 2.6 | 0.00 | 0.10 | 0.00 | 92 | 1009.1 |
| 20260830074559 | 68 | 36 | 0.0 | 3.5 | 0.00 | 0.10 | 0.00 | 92 | 1009.0 |
| 20260830074047 | 68 | 83 | 0.0 | 4.3 | 0.00 | 0.10 | 0.00 | 92 | 1009.0 |
| 20260830073544 | 68 | 90 | 1.7 | 4.3 | 0.00 | 0.10 | 0.00 | 92 | 1008.9 |
| 20260830073043 | 68 | 55 | 1.7 | 4.3 | 0.00 | 0.10 | 0.00 | 92 | 1008.9 |
| 20260830072542 | 69 | 38 | 1.7 | 4.3 | 0.00 | 0.10 | 0.00 | 92 | 1009.1 |
| 20260830072042 | 69 | 43 | 0.9 | 3.5 | 0.00 | 0.10 | 0.00 | 92 | 1009.1 |
| 20260830071541 | 69 | 114 | 0.9 | 3.5 | 0.00 | 0.10 | 0.00 | 92 | 1009.1 |
| 20260830071040 | 69 | 62 | 1.7 | 3.5 | 0.00 | 0.10 | 0.00 | 92 | 1009.2 |
| 20260830070539 | 69 | 82 | 1.7 | 3.5 | 0.00 | 0.10 | 0.00 | 92 | 1009.4 |
| 20260830070040 | 69 | 89 | 1.7 | 3.5 | 0.00 | 0.10 | 0.00 | 91 | 1009.6 |
| 20260830065537 | 69 | 76 | 1.7 | 4.3 | 0.00 | 0.10 | 0.00 | 91 | 1009.6 |
| 20260830065037 | 69 | 99 | 2.6 | 4.3 | 0.00 | 0.10 | 0.00 | 91 | 1009.7 |
| 20260830064538 | 69 | 82 | 1.7 | 4.3 | 0.00 | 0.10 | 0.00 | 91 | 1009.8 |
| 20260830064036 | 69 | 103 | 1.7 | 5.2 | 0.00 | 0.10 | 0.00 | 91 | 1009.8 |
| 20260830063537 | 69 | 109 | 1.7 | 5.2 | 0.00 | 0.10 | 0.00 | 91 | 1009.8 |
| 20260830063035 | 70 | 90 | 2.6 | 5.2 | 0.00 | 0.10 | 0.00 | 91 | 1009.9 |
| 20260830062534 | 70 | 89 | 1.7 | 3.5 | 0.00 | 0.10 | 0.00 | 91 | 1009.8 |
| 20260830062033 | 70 | 69 | 0.9 | 5.2 | 0.00 | 0.10 | 0.00 | 90 | 1010.0 |
| 20260830061535 | 70 | 74 | 0.9 | 5.2 | 0.00 | 0.10 | 0.00 | 90 | 1009.9 |
| 20260830061035 | 70 | 109 | 0.9 | 5.2 | 0.00 | 0.10 | 0.00 | 90 | 1010.0 |
| 20260830060532 | 70 | 89 | 1.7 | 5.2 | 0.00 | 0.10 | 0.00 | 90 | 1009.8 |
| 20260830060031 | 70 | 89 | 1.7 | 4.3 | 0.00 | 0.10 | 0.00 | 90 | 1009.9 |
| 20260830055534 | 71 | 119 | 1.7 | 4.3 | 0.00 | 0.10 | 0.00 | 90 | 1009.9 |
| 20260830055031 | 71 | 119 | 1.7 | 5.2 | 0.00 | 0.10 | 0.00 | 90 | 1009.9 |
| 20260830054530 | 71 | 94 | 1.7 | 5.2 | 0.00 | 0.10 | 0.00 | 90 | 1009.9 |
| 20260830054130 | 71 | 97 | 1.7 | 5.2 | 0.00 | 0.10 | 0.00 | 90 | 1009.8 |
| 20260830053529 | 71 | 88 | 1.7 | 5.2 | 0.00 | 0.10 | 0.00 | 90 | 1009.7 |
| 20260830053029 | 71 | 91 | 2.6 | 5.2 | 0.00 | 0.10 | 0.00 | 90 | 1009.8 |
| 20260830052528 | 71 | 92 | 0.9 | 6.1 | 0.00 | 0.10 | 0.00 | 89 | 1009.7 |
| 20260830052028 | 71 | 112 | 2.6 | 6.1 | 0.00 | 0.10 | 0.00 | 89 | 1009.7 |
| 20260830051529 | 71 | 106 | 2.6 | 7.0 | 0.00 | 0.10 | 0.00 | 89 | 1009.7 |